User: anonymous   Login
Location: Asheville, NC
(35.6000°N, 82.5500°W)
Time: 03:00:02
(UTC-05:00)
Language:

SRMSAT - Orbit

View from above orbital plane
View from above orbital plane
View from above satellite
View from above satellite

Ground track
Ground track

The orbit data is extracted from the following two-line orbital elements,

1 37841U 11058D   18021.02977042  .00000301  00000-0  20546-4 0  9996
2 37841  19.9713 255.7503 0011775 314.1761 189.7528 14.10596622324078
Epoch (UTC): 21 January 2018 00:42:52
Eccentricity: 0.0011775
inclination: 19.9713°
perigee height: 849 km
apogee height: 866 km
right ascension of ascending node: 255.7503°
argument of perigee: 314.1761°
revolutions per day: 14.10596622
mean anomaly at epoch: 189.7528°
orbit number at epoch: 32407

The dashed part of the orbit path shows where the satellite is in the earth's shadow,  

DLR